Back to catalog

STARLINK-31484

AliveCommunicationsVLEO
NORAD 59005·PAYLOAD·🇺🇸 United States

Launched Feb 23, 2024 from Vandenberg Space Force Base

Loading…

Next Passes (next 24 hours)

TLE

FreshSource: CelesTrak SupGP

Epoch: Sep 14, 2026, 13:58 UTC

1 59005C 24036H   26257.58243056  .00024772  00000+0  73184-3 0  2573
2 59005  53.1570 279.1516 0001379  66.9016  18.9118 15.34380345    16

Track STARLINK-31484 in real time with AllMySat

Download on the App Store